{"data":{"norad_id":59496,"intl_designator":"2024-071N","name":"STARLINK-31728","alt_names":[],"object_type":"PAYLOAD","status":"ACTIVE","operator":null,"country":"US","launch_date":"2024-04-13","launch_site_code":"AFETR","launch_vehicle":null,"mission":null,"orbit_class":"UNKNOWN","rcs_meters":null,"size_class":null,"mass_kg":null,"dimensions":null,"purposes":["comms"],"wikipedia_slug":null,"has_3d_model":false,"image_url":null,"decayed_at":null,"tle_current":{"epoch":"2026-05-25T01:06:38.204064Z","epoch_age_seconds":81775,"freshness":"FRESH","line1":"1 59496U 24071N   26145.04627551  .00017969  00000+0  66083-3 0  9992","line2":"2 59496  42.9998 268.4950 0001770 280.1978  79.8673 15.27583994119880","mean_motion":15.27583994,"eccentricity":0.000177,"inclination_deg":42.9998,"raan_deg":268.495,"arg_perigee_deg":280.1978,"mean_anomaly_deg":79.8673,"bstar":0.00066083,"rev_number":11988,"period_min":94.266502245113,"perigee_km":481.8227087707,"apogee_km":484.25156441505,"semimajor_km":6861.1741365929,"source":"CELESTRAK","updated_at":"2026-05-25T13:38:18.955040Z"}}}